Cloquet, MN

9:09 PM CST on December 14, 2019 (GMT -0600)
Cloquet Carlton County

Weather History for KCOQ - October, 2019

Change the Weather History Date:

Wednesday, October 2, 2019

  Actual Average Record
Temperature  
Mean Temperature 44 °F -  
Max Temperature 46 °F 56 °F 77 °F (1997)
Min Temperature 42 °F 37 °F 17 °F (2003)
Degree Days  
Heating Degree Days 21    
Moisture  
Dew Point 38 °F    
Average Humidity 81    
Maximum Humidity 93    
Minimum Humidity 66    
Precipitation  
Precipitation 0.04 in - - ()
Sea Level Pressure  
Sea Level Pressure 30.13 in    
Wind  
Wind Speed 9 mph ()    
Max Wind Speed 21 mph    
Max Gust Speed 30 mph    
Visibility 9.0 miles    
Events Rain    
Averages and records for this station are not official NWS values.
T = Trace of Precipitation, MM = Missing Value Source: Averaged Metar Reports

Daily Weather History Graph

Daily Weather History Graph

Search for Another Location

Airport or City:

Astronomy

Oct. 02, 2019 Rise Set
Actual Time 7:09 AM CDT 6:48 PM CDT
Civil Twilight 6:39 AM CDT 7:18 PM CDT
Nautical Twilight 6:04 AM CDT 7:53 PM CDT
Astronomical Twilight 5:28 AM CDT 8:28 PM CDT
Moon 11:50 AM CDT (10/2) 9:26 PM CDT (10/2)
Length of Visible Light 12h 38m
Length of Day
11h 38m
Waxing Crescent, 20% of the Moon is Illuminated
Oct 2
Waxing Crescent
Oct 5
First Quarter
Oct 13
Full
Oct 21
Last Quarter
Oct 27
New

Hourly Weather History & Observations

Time (CDT) Temp. Windchill Dew Point Humidity Pressure Visibility Wind Dir Wind Speed Gust Speed Precip Events Conditions
12:15 AM 44.6 °F 41.4 °F 37.4 °F 76% 30.10 in 10.0 mi North 5.8 mph - N/A   Overcast
12:16 AM 44.6 °F 42.2 °F 37.4 °F 76% 30.10 in 10.0 mi NNE 4.6 mph - N/A   Overcast
12:35 AM 44.6 °F 42.2 °F 37.4 °F 76% 30.10 in 10.0 mi North 4.6 mph - N/A   Overcast
12:55 AM 44.6 °F 42.2 °F 37.4 °F 76% 30.11 in 10.0 mi North 4.6 mph - N/A   Overcast
12:56 AM 44.6 °F 42.2 °F 37.4 °F 76% 30.11 in 10.0 mi North 4.6 mph - N/A   Overcast
1:15 AM 44.6 °F 41.4 °F 37.4 °F 76% 30.11 in 10.0 mi North 5.8 mph - N/A   Overcast
1:35 AM 44.6 °F 41.4 °F 37.4 °F 76% 30.11 in 10.0 mi North 5.8 mph - N/A   Overcast
1:36 AM 44.6 °F 41.4 °F 37.4 °F 76% 30.11 in 10.0 mi North 5.8 mph - N/A   Overcast
1:55 AM 44.6 °F 41.4 °F 37.4 °F 76% 30.12 in 10.0 mi North 5.8 mph - N/A   Overcast
1:56 AM 44.6 °F 41.4 °F 37.4 °F 76% 30.12 in 10.0 mi North 5.8 mph - N/A   Overcast
2:15 AM 44.6 °F 42.2 °F 37.4 °F 76% 30.12 in 10.0 mi North 4.6 mph - N/A   Overcast
2:35 AM 44.6 °F 41.4 °F 37.4 °F 76% 30.13 in 10.0 mi North 5.8 mph - N/A   Overcast
2:36 AM 44.6 °F 41.4 °F 37.4 °F 76% 30.13 in 10.0 mi NNE 5.8 mph - N/A   Overcast
2:55 AM 46.4 °F 44.3 °F 39.2 °F 76% 30.14 in 10.0 mi NNE 4.6 mph - N/A   Overcast
3:15 AM 44.6 °F 43.1 °F 39.2 °F 81% 30.14 in 10.0 mi NNE 3.5 mph - N/A   Overcast
3:35 AM 44.6 °F 41.4 °F 37.4 °F 76% 30.14 in 10.0 mi NNE 5.8 mph - N/A   Overcast
3:36 AM 44.6 °F 41.4 °F 37.4 °F 76% 30.14 in 10.0 mi NNE 5.8 mph - N/A   Overcast
3:55 AM 46.4 °F 42.9 °F 37.4 °F 71% 30.14 in 10.0 mi NNE 6.9 mph - N/A   Overcast
3:56 AM 46.4 °F 43.5 °F 37.4 °F 71% 30.14 in 10.0 mi NNE 5.8 mph - N/A   Overcast
4:15 AM 44.6 °F 40.2 °F 37.4 °F 76% 30.14 in 10.0 mi NE 8.1 mph - N/A   Overcast
4:35 AM 44.6 °F 40.2 °F 37.4 °F 76% 30.14 in 10.0 mi NE 8.1 mph - N/A   Overcast
4:36 AM 44.6 °F 40.2 °F 37.4 °F 76% 30.14 in 10.0 mi NE 8.1 mph - N/A   Overcast
4:55 AM 44.6 °F 40.2 °F 37.4 °F 76% 30.14 in 10.0 mi NE 8.1 mph - N/A   Overcast
4:56 AM 44.6 °F 39.7 °F 37.4 °F 76% 30.14 in 10.0 mi NE 9.2 mph - N/A   Overcast
5:15 AM 44.6 °F 39.7 °F 37.4 °F 76% 30.14 in 10.0 mi NE 9.2 mph - N/A   Overcast
5:35 AM 44.6 °F 40.2 °F 37.4 °F 76% 30.14 in 10.0 mi NE 8.1 mph - N/A   Overcast
5:55 AM 44.6 °F 40.2 °F 37.4 °F 76% 30.14 in 10.0 mi NE 8.1 mph - N/A   Overcast
5:56 AM 44.6 °F 39.7 °F 37.4 °F 76% 30.14 in 10.0 mi NE 9.2 mph - N/A   Overcast
6:15 AM 44.6 °F 39.7 °F 37.4 °F 76% 30.14 in 10.0 mi NE 9.2 mph - N/A   Overcast
6:16 AM 44.6 °F 39.7 °F 37.4 °F 76% 30.14 in 10.0 mi NE 9.2 mph - N/A   Overcast
6:35 AM 44.6 °F 40.7 °F 37.4 °F 76% 30.15 in 10.0 mi NE 6.9 mph - N/A   Overcast
6:36 AM 44.6 °F 40.2 °F 37.4 °F 76% 30.15 in 10.0 mi NE 8.1 mph - N/A   Overcast
6:55 AM 44.6 °F 40.2 °F 37.4 °F 76% 30.15 in 10.0 mi NE 8.1 mph 16.1 mph N/A   Overcast
6:56 AM 44.6 °F 41.4 °F 37.4 °F 76% 30.16 in 10.0 mi NE 5.8 mph 16.1 mph N/A   Overcast
7:15 AM 44.6 °F 40.2 °F 37.4 °F 76% 30.16 in 10.0 mi NNE 8.1 mph - N/A   Overcast
7:35 AM 44.6 °F 41.4 °F 37.4 °F 76% 30.17 in 10.0 mi NE 5.8 mph - N/A   Overcast
7:55 AM 44.6 °F 40.2 °F 37.4 °F 76% 30.18 in 10.0 mi NE 8.1 mph - N/A   Overcast
8:15 AM 44.6 °F 39.7 °F 37.4 °F 76% 30.18 in 10.0 mi NE 9.2 mph - N/A   Overcast
8:35 AM 44.6 °F 38.8 °F 37.4 °F 76% 30.18 in 10.0 mi NE 11.5 mph - N/A   Overcast
8:36 AM 44.6 °F 40.2 °F 37.4 °F 76% 30.18 in 10.0 mi NE 8.1 mph - N/A   Overcast
8:55 AM 44.6 °F 38.8 °F 37.4 °F 76% 30.18 in 10.0 mi NE 11.5 mph - N/A   Overcast
9:15 AM 44.6 °F 39.2 °F 37.4 °F 76% 30.18 in 10.0 mi NE 10.4 mph - N/A   Overcast
9:35 AM 44.6 °F 39.7 °F 35.6 °F 71% 30.17 in 10.0 mi ENE 9.2 mph 19.6 mph N/A   Overcast
9:36 AM 44.6 °F 40.2 °F 35.6 °F 71% 30.17 in 10.0 mi ENE 8.1 mph 19.6 mph N/A   Overcast
9:55 AM 44.6 °F 39.2 °F 37.4 °F 76% 30.18 in 10.0 mi ENE 10.4 mph 19.6 mph N/A   Overcast
10:15 AM 44.6 °F 38.1 °F 37.4 °F 76% 30.17 in 10.0 mi ENE 13.8 mph 25.3 mph N/A   Overcast
10:16 AM 44.6 °F 38.1 °F 37.4 °F 76% 30.17 in 10.0 mi ENE 13.8 mph 25.3 mph N/A   Overcast
10:35 AM 44.6 °F 39.2 °F 37.4 °F 76% 30.17 in 10.0 mi ENE 10.4 mph 19.6 mph N/A   Overcast
10:55 AM 44.6 °F 37.8 °F 35.6 °F 71% 30.17 in 10.0 mi ENE 15.0 mph 21.9 mph N/A   Overcast
10:56 AM 44.6 °F 38.1 °F 35.6 °F 71% 30.17 in 10.0 mi ENE 13.8 mph 21.9 mph N/A   Overcast
11:15 AM 44.6 °F 38.1 °F 35.6 °F 71% 30.17 in 10.0 mi ENE 13.8 mph 20.7 mph N/A   Overcast
11:35 AM 44.6 °F 37.4 °F 35.6 °F 71% 30.18 in 10.0 mi ENE 16.1 mph 21.9 mph N/A   Overcast
11:36 AM 44.6 °F 37.8 °F 35.6 °F 71% 30.18 in 10.0 mi ENE 15.0 mph 21.9 mph N/A   Overcast
11:55 AM 46.4 °F 40.1 °F 37.4 °F 71% 30.18 in 10.0 mi ENE 15.0 mph 20.7 mph N/A   Overcast
12:15 PM 46.4 °F 40.7 °F 35.6 °F 66% 30.19 in 10.0 mi East 12.7 mph 20.7 mph N/A   Overcast
12:35 PM 46.4 °F 39.5 °F 37.4 °F 71% 30.17 in 10.0 mi ENE 17.3 mph 25.3 mph N/A   Overcast
12:36 PM 46.4 °F 39.8 °F 37.4 °F 71% 30.17 in 10.0 mi ENE 16.1 mph 25.3 mph N/A   Overcast
12:55 PM 46.4 °F 39.8 °F 37.4 °F 71% 30.18 in 10.0 mi East 16.1 mph 25.3 mph N/A   Overcast
1:15 PM 44.6 °F 38.1 °F 37.4 °F 76% 30.17 in 10.0 mi ENE 13.8 mph 23.0 mph N/A   Overcast
1:35 PM 44.6 °F 37.2 °F 37.4 °F 76% 30.16 in 10.0 mi ENE 17.3 mph 23.0 mph N/A   Overcast
1:55 PM 44.6 °F 37.2 °F 37.4 °F 76% 30.16 in 10.0 mi East 17.3 mph 29.9 mph N/A   Mostly Cloudy
2:15 PM 44.6 °F 38.8 °F 37.4 °F 76% 30.17 in 10.0 mi East 11.5 mph 20.7 mph N/A   Overcast
2:16 PM 44.6 °F 38.8 °F 37.4 °F 76% 30.17 in 10.0 mi East 11.5 mph 20.7 mph N/A   Overcast
2:35 PM 44.6 °F 37.4 °F 37.4 °F 76% 30.16 in 10.0 mi East 16.1 mph 24.2 mph N/A   Overcast
2:36 PM 44.6 °F 38.1 °F 37.4 °F 76% 30.16 in 10.0 mi East 13.8 mph 24.2 mph N/A   Overcast
2:55 PM 44.6 °F 38.4 °F 37.4 °F 76% 30.14 in 10.0 mi ENE 12.7 mph 19.6 mph N/A   Overcast
3:15 PM 42.8 °F 36.2 °F 39.2 °F 87% 30.14 in 7.0 mi ENE 12.7 mph 21.9 mph N/A   Overcast
3:16 PM 42.8 °F 37.5 °F 39.2 °F 87% 30.14 in 7.0 mi East 9.2 mph 21.9 mph N/A   Overcast
3:35 PM 42.8 °F 36.2 °F 39.2 °F 87% 30.15 in 5.0 mi ENE 12.7 mph 26.5 mph N/A   Overcast
3:36 PM 42.8 °F 35.4 °F 39.2 °F 87% 30.15 in 5.0 mi East 15.0 mph 26.5 mph N/A   Overcast
3:55 PM 42.8 °F 34.8 °F 39.2 °F 87% 30.14 in 4.0 mi ENE 17.3 mph 23.0 mph N/A   Light Drizzle
3:56 PM 42.8 °F 34.8 °F 39.2 °F 87% 30.14 in 4.0 mi ENE 17.3 mph 24.2 mph N/A   Light Drizzle
4:15 PM 42.8 °F 34.0 °F 39.2 °F 87% 30.13 in 3.0 mi ENE 20.7 mph 29.9 mph N/A   Overcast
4:35 PM 42.8 °F 34.5 °F 39.2 °F 87% 30.12 in 4.0 mi ENE 18.4 mph 26.5 mph N/A Rain Light Rain
4:55 PM 42.8 °F 36.2 °F 39.2 °F 87% 30.12 in 2.0 mi ENE 12.7 mph 24.2 mph N/A Rain Light Rain
5:15 PM 42.8 °F 35.1 °F 39.2 °F 87% 30.11 in 3.0 mi ENE 16.1 mph 28.8 mph N/A Rain Light Rain
5:16 PM 42.8 °F 36.2 °F 39.2 °F 87% 30.11 in 3.0 mi East 12.7 mph 28.8 mph N/A Rain Light Rain
5:35 PM 42.8 °F 35.1 °F 39.2 °F 87% 30.11 in 10.0 mi East 16.1 mph 27.6 mph N/A   Overcast
5:36 PM 42.8 °F 35.8 °F 39.2 °F 87% 30.11 in 10.0 mi East 13.8 mph 27.6 mph N/A   Overcast
5:55 PM 42.8 °F 35.8 °F 39.2 °F 87% 30.11 in 10.0 mi ENE 13.8 mph 24.2 mph N/A Rain Light Rain
5:56 PM 42.8 °F 34.8 °F 39.2 °F 87% 30.11 in 10.0 mi ENE 17.3 mph 24.2 mph N/A Rain Light Rain
6:15 PM 42.8 °F 35.4 °F 39.2 °F 87% 30.10 in 5.0 mi ENE 15.0 mph 24.2 mph N/A Rain Light Rain
6:16 PM 42.8 °F 35.1 °F 39.2 °F 87% 30.10 in 5.0 mi ENE 16.1 mph 24.2 mph N/A   Light Drizzle
6:35 PM 42.8 °F 35.4 °F 39.2 °F 87% 30.10 in 10.0 mi ENE 15.0 mph 23.0 mph N/A Rain Light Rain
6:36 PM 42.8 °F 35.4 °F 39.2 °F 87% 30.10 in 10.0 mi East 15.0 mph 23.0 mph N/A Rain Light Rain
6:55 PM 42.8 °F 35.8 °F 39.2 °F 87% 30.10 in 10.0 mi East 13.8 mph 24.2 mph N/A Rain Light Rain
7:15 PM 42.8 °F 37.0 °F 39.2 °F 87% 30.09 in 10.0 mi East 10.4 mph 20.7 mph N/A   Drizzle
7:35 PM 42.8 °F 36.2 °F 39.2 °F 87% 30.10 in 10.0 mi ENE 12.7 mph 21.9 mph N/A Rain Light Rain
7:55 PM 42.8 °F 36.2 °F 39.2 °F 87% 30.10 in 10.0 mi East 12.7 mph 21.9 mph N/A   Overcast
7:56 PM 42.8 °F 36.6 °F 39.2 °F 87% 30.10 in 10.0 mi East 11.5 mph 21.9 mph N/A   Overcast
8:15 PM 42.8 °F 36.6 °F 41.0 °F 93% 30.10 in 10.0 mi East 11.5 mph - N/A Rain Light Rain
8:16 PM 42.8 °F 37.0 °F 41.0 °F 93% 30.10 in 10.0 mi East 10.4 mph - N/A Rain Rain
8:35 PM 42.8 °F 35.8 °F 41.0 °F 93% 30.08 in 7.0 mi ENE 13.8 mph 21.9 mph 0.01 in Rain Rain
8:55 PM 42.8 °F 35.8 °F 41.0 °F 93% 30.06 in 10.0 mi ENE 13.8 mph 25.3 mph 0.01 in Rain Light Rain
9:15 PM 42.8 °F 36.2 °F 41.0 °F 93% 30.06 in 10.0 mi ENE 12.7 mph 20.7 mph 0.01 in Rain Light Rain
9:16 PM 42.8 °F 36.2 °F 41.0 °F 93% 30.07 in 10.0 mi ENE 12.7 mph 20.7 mph 0.01 in Rain Light Rain
9:35 PM 42.8 °F 35.8 °F 41.0 °F 93% 30.07 in 10.0 mi ENE 13.8 mph 20.7 mph 0.01 in Rain Light Rain
9:55 PM 42.8 °F 36.2 °F 41.0 °F 93% 30.07 in 10.0 mi ENE 12.7 mph 18.4 mph 0.01 in Rain Light Rain
9:56 PM 42.8 °F 36.6 °F 41.0 °F 93% 30.07 in 10.0 mi ENE 11.5 mph 18.4 mph N/A Rain Light Rain
10:15 PM 42.8 °F 37.5 °F 41.0 °F 93% 30.05 in 10.0 mi East 9.2 mph 18.4 mph N/A   Drizzle
10:16 PM 42.8 °F 37.0 °F 41.0 °F 93% 30.05 in 10.0 mi East 10.4 mph 18.4 mph N/A   Drizzle
10:35 PM 42.8 °F 36.6 °F 41.0 °F 93% 30.07 in 7.0 mi East 11.5 mph - 0.01 in Rain Light Rain
10:36 PM 42.8 °F 37.0 °F 41.0 °F 93% 30.07 in 7.0 mi ENE 10.4 mph - 0.01 in Rain Light Rain
10:55 PM 42.8 °F 39.3 °F 41.0 °F 93% 30.08 in 4.0 mi East 5.8 mph - N/A Rain Rain
10:56 PM 42.8 °F 37.5 °F 41.0 °F 93% 30.08 in 4.0 mi East 9.2 mph - N/A Rain Rain
11:15 PM 42.8 °F 38.0 °F 41.0 °F 93% 30.07 in 7.0 mi ENE 8.1 mph - 0.01 in Rain Light Rain
11:35 PM 42.8 °F 38.0 °F 41.0 °F 93% 30.07 in 5.0 mi East 8.1 mph - 0.01 in Rain Rain
11:36 PM 42.8 °F 38.0 °F 41.0 °F 93% 30.07 in 5.0 mi East 8.1 mph - 0.01 in Rain Rain
11:55 PM 42.8 °F 38.0 °F 41.0 °F 93% 30.06 in 10.0 mi East 8.1 mph - 0.01 in Rain Light Rain